| time (UTC) | temp C | wind direction | speed KPH | gust KPH | rain 1hr cm | rain 24hr cm | rain mn cm | humidity % | barometer mb |
| 20260831164030 | 20 | 0.0 | 0.0 | 0.00 | 0.20 | 0.20 | 76 | 1014.4 | |
| 20260831163529 | 20 | 0.0 | 0.0 | 0.00 | 0.20 | 0.20 | 76 | 1014.6 | |
| 20260831163027 | 20 | 204 | 0.0 | 1.6 | 0.00 | 0.20 | 0.20 | 76 | 1014.5 |
| 20260831162525 | 20 | 0.0 | 0.0 | 0.00 | 0.20 | 0.20 | 76 | 1014.5 | |
| 20260831162023 | 20 | 0.0 | 0.0 | 0.00 | 0.20 | 0.20 | 75 | 1014.5 | |
| 20260831161522 | 21 | 0.0 | 0.0 | 0.00 | 0.20 | 0.20 | 75 | 1014.5 | |
| 20260831161054 | 21 | 0.0 | 0.0 | 0.00 | 0.20 | 0.20 | 75 | 1014.4 | |
| 20260831161019 | 21 | 0.0 | 0.0 | 0.00 | 0.20 | 0.20 | 75 | 1014.4 | |
| 20260831160517 | 21 | 0.0 | 0.0 | 0.00 | 0.20 | 0.20 | 75 | 1014.5 | |
| 20260831160035 | 21 | 0.0 | 0.0 | 0.00 | 0.20 | 0.20 | 75 | 1014.5 | |
| 20260831155534 | 21 | 0.0 | 0.0 | 0.00 | 0.20 | 0.20 | 75 | 1014.6 | |
| 20260831155032 | 21 | 0.0 | 0.0 | 0.00 | 0.20 | 0.20 | 75 | 1014.7 | |
| 20260831154530 | 21 | 0.0 | 0.0 | 0.00 | 0.20 | 0.20 | 75 | 1014.6 | |
| 20260831154028 | 21 | 301 | 0.0 | 3.2 | 0.00 | 0.20 | 0.20 | 75 | 1014.6 |
| 20260831153526 | 21 | 0.0 | 0.0 | 0.00 | 0.20 | 0.20 | 74 | 1014.6 | |
| 20260831153024 | 21 | 349 | 0.0 | 1.6 | 0.00 | 0.20 | 0.20 | 74 | 1014.6 |
| 20260831152522 | 21 | 323 | 0.0 | 3.2 | 0.00 | 0.20 | 0.20 | 74 | 1014.7 |
| 20260831152021 | 21 | 0.0 | 0.0 | 0.00 | 0.20 | 0.20 | 74 | 1014.6 | |
| 20260831151519 | 21 | 0.0 | 0.0 | 0.18 | 0.20 | 0.20 | 74 | 1014.7 | |
| 20260831151100 | 21 | 350 | 1.6 | 3.2 | 0.18 | 0.20 | 0.20 | 74 | 1014.8 |
| 20260831151017 | 21 | 350 | 1.6 | 3.2 | 0.18 | 0.20 | 0.20 | 74 | 1014.8 |
| 20260831150535 | 21 | 347 | 0.0 | 3.2 | 0.18 | 0.20 | 0.20 | 74 | 1014.8 |
| 20260831150107 | 21 | 353 | 0.0 | 1.6 | 0.18 | 0.20 | 0.20 | 75 | 1014.7 |
| 20260831150033 | 21 | 353 | 0.0 | 1.6 | 0.18 | 0.20 | 0.20 | 75 | 1014.7 |
| 20260831145531 | 21 | 343 | 0.0 | 4.8 | 0.18 | 0.20 | 0.20 | 75 | 1014.7 |
| 20260831145029 | 21 | 356 | 1.6 | 6.4 | 0.20 | 0.20 | 0.20 | 76 | 1014.8 |
| 20260831144527 | 21 | 311 | 1.6 | 4.8 | 0.20 | 0.20 | 0.20 | 76 | 1014.9 |
| 20260831144025 | 21 | 301 | 1.6 | 4.8 | 0.20 | 0.20 | 0.20 | 77 | 1014.8 |
| 20260831143523 | 21 | 304 | 4.8 | 12.9 | 0.20 | 0.20 | 0.20 | 77 | 1014.9 |
| 20260831143021 | 21 | 358 | 6.4 | 16.1 | 0.20 | 0.20 | 0.20 | 76 | 1014.9 |
| 20260831142519 | 21 | 310 | 9.7 | 25.7 | 0.20 | 0.20 | 0.20 | 75 | 1015.1 |
| 20260831142051 | 22 | 325 | 11.3 | 35.4 | 0.20 | 0.20 | 0.20 | 72 | 1015.7 |
| 20260831142017 | 22 | 325 | 11.3 | 35.4 | 0.20 | 0.20 | 0.20 | 72 | 1015.7 |
| 20260831141516 | 22 | 284 | 16.1 | 33.8 | 0.03 | 0.03 | 0.03 | 69 | 1015.7 |
| 20260831141034 | 22 | 293 | 1.6 | 9.7 | 0.03 | 0.03 | 0.03 | 66 | 1014.1 |
| 20260831140533 | 22 | 58 | 0.0 | 3.2 | 0.03 | 0.03 | 0.03 | 66 | 1013.9 |
| 20260831140030 | 22 | 51 | 1.6 | 4.8 | 0.03 | 0.03 | 0.03 | 66 | 1014.1 |
| 20260831135528 | 22 | 341 | 4.8 | 12.9 | 0.03 | 0.03 | 0.03 | 65 | 1014.5 |
| 20260831135026 | 22 | 351 | 3.2 | 11.3 | 0.00 | 0.00 | 0.00 | 65 | 1014.5 |
| 20260831134524 | 23 | 12 | 1.6 | 11.3 | 0.00 | 0.00 | 0.00 | 65 | 1014.4 |
| 20260831134059 | 23 | 356 | 4.8 | 14.5 | 0.00 | 0.00 | 0.00 | 64 | 1014.5 |
| 20260831134023 | 23 | 356 | 4.8 | 14.5 | 0.00 | 0.00 | 0.00 | 64 | 1014.5 |
| 20260831133520 | 23 | 348 | 4.8 | 14.5 | 0.00 | 0.00 | 0.00 | 62 | 1014.7 |
| 20260831133019 | 23 | 302 | 1.6 | 6.4 | 0.00 | 0.00 | 0.00 | 60 | 1014.7 |
| 20260831132517 | 24 | 299 | 1.6 | 4.8 | 0.00 | 0.00 | 0.00 | 59 | 1014.8 |
| 20260831132035 | 24 | 315 | 4.8 | 11.3 | 0.00 | 0.00 | 0.00 | 57 | 1014.7 |
| 20260831131533 | 25 | 344 | 9.7 | 25.7 | 0.00 | 0.00 | 0.00 | 55 | 1014.7 |
| 20260831131031 | 25 | 321 | 14.5 | 33.8 | 0.00 | 0.00 | 0.00 | 53 | 1014.9 |
| 20260831130529 | 25 | 327 | 11.3 | 20.9 | 0.00 | 0.00 | 0.00 | 52 | 1014.8 |
| 20260831130028 | 26 | 337 | 9.7 | 20.9 | 0.00 | 0.00 | 0.00 | 50 | 1014.5 |
| 20260831125525 | 26 | 303 | 11.3 | 25.7 | 0.00 | 0.00 | 0.00 | 49 | 1014.4 |
| 20260831125023 | 26 | 296 | 6.4 | 20.9 | 0.00 | 0.00 | 0.00 | 49 | 1014.4 |
| 20260831124521 | 26 | 289 | 4.8 | 12.9 | 0.00 | 0.00 | 0.00 | 49 | 1014.3 |
| 20260831124020 | 26 | 289 | 4.8 | 14.5 | 0.00 | 0.00 | 0.00 | 50 | 1014.4 |
| 20260831123518 | 26 | 279 | 3.2 | 11.3 | 0.00 | 0.00 | 0.00 | 50 | 1014.4 |
| 20260831123016 | 26 | 291 | 1.6 | 6.4 | 0.00 | 0.00 | 0.00 | 49 | 1014.5 |
| 20260831122535 | 26 | 283 | 3.2 | 9.7 | 0.00 | 0.00 | 0.00 | 48 | 1014.5 |
| 20260831122033 | 26 | 255 | 6.4 | 14.5 | 0.00 | 0.00 | 0.00 | 48 | 1014.4 |
| 20260831121530 | 26 | 258 | 3.2 | 11.3 | 0.00 | 0.00 | 0.00 | 48 | 1014.4 |
| 20260831121029 | 26 | 276 | 4.8 | 12.9 | 0.00 | 0.00 | 0.00 | 48 | 1014.6 |
| 20260831120527 | 26 | 253 | 6.4 | 16.1 | 0.00 | 0.00 | 0.00 | 48 | 1014.5 |
| 20260831120025 | 26 | 235 | 6.4 | 17.7 | 0.00 | 0.00 | 0.00 | 47 | 1014.5 |
| 20260831115523 | 26 | 213 | 6.4 | 12.9 | 0.00 | 0.00 | 0.00 | 46 | 1014.4 |
| 20260831115021 | 27 | 192 | 6.4 | 16.1 | 0.00 | 0.00 | 0.00 | 46 | 1014.3 |
| 20260831114519 | 27 | 211 | 6.4 | 14.5 | 0.00 | 0.00 | 0.00 | 45 | 1014.4 |
| 20260831114017 | 27 | 248 | 8.0 | 16.1 | 0.00 | 0.00 | 0.00 | 45 | 1014.3 |
| 20260831113515 | 27 | 232 | 4.8 | 12.9 | 0.00 | 0.00 | 0.00 | 45 | 1014.3 |
| 20260831113034 | 27 | 243 | 6.4 | 17.7 | 0.00 | 0.00 | 0.00 | 45 | 1014.2 |
| 20260831112532 | 27 | 246 | 6.4 | 16.1 | 0.00 | 0.00 | 0.00 | 45 | 1014.2 |
| 20260831112030 | 27 | 254 | 4.8 | 12.9 | 0.00 | 0.00 | 0.00 | 46 | 1014.2 |
| 20260831111528 | 27 | 219 | 4.8 | 11.3 | 0.00 | 0.00 | 0.00 | 46 | 1014.2 |
| 20260831111026 | 27 | 205 | 3.2 | 6.4 | 0.00 | 0.00 | 0.00 | 45 | 1014.2 |
| 20260831110524 | 27 | 227 | 4.8 | 12.9 | 0.00 | 0.00 | 0.00 | 45 | 1014.3 |
| 20260831110022 | 27 | 227 | 6.4 | 11.3 | 0.00 | 0.00 | 0.00 | 45 | 1014.2 |
| 20260831105521 | 27 | 232 | 4.8 | 12.9 | 0.00 | 0.00 | 0.00 | 45 | 1014.2 |
| 20260831105019 | 27 | 277 | 4.8 | 12.9 | 0.00 | 0.00 | 0.00 | 43 | 1014.2 |
| 20260831104517 | 27 | 286 | 8.0 | 16.1 | 0.00 | 0.00 | 0.00 | 44 | 1014.4 |
| 20260831104035 | 27 | 239 | 6.4 | 16.1 | 0.00 | 0.00 | 0.00 | 45 | 1014.3 |
| 20260831103533 | 27 | 254 | 4.8 | 17.7 | 0.00 | 0.00 | 0.00 | 46 | 1014.3 |
| 20260831103031 | 27 | 264 | 1.6 | 4.8 | 0.00 | 0.00 | 0.00 | 47 | 1014.3 |
| 20260831102530 | 27 | 182 | 3.2 | 9.7 | 0.00 | 0.00 | 0.00 | 46 | 1014.3 |
| 20260831102028 | 27 | 285 | 4.8 | 12.9 | 0.00 | 0.00 | 0.00 | 46 | 1014.4 |
| 20260831101526 | 27 | 240 | 6.4 | 14.5 | 0.00 | 0.00 | 0.00 | 46 | 1014.4 |
| 20260831101024 | 27 | 248 | 4.8 | 11.3 | 0.00 | 0.00 | 0.00 | 45 | 1014.5 |
| 20260831100522 | 27 | 256 | 4.8 | 12.9 | 0.00 | 0.00 | 0.00 | 46 | 1014.5 |
| 20260831100020 | 27 | 269 | 4.8 | 12.9 | 0.00 | 0.00 | 0.00 | 43 | 1014.5 |
| 20260831095518 | 27 | 289 | 8.0 | 16.1 | 0.00 | 0.00 | 0.00 | 46 | 1014.6 |
| 20260831095048 | 26 | 275 | 4.8 | 11.3 | 0.00 | 0.00 | 0.00 | 48 | 1014.6 |
| 20260831095016 | 26 | 275 | 4.8 | 11.3 | 0.00 | 0.00 | 0.00 | 48 | 1014.6 |
| 20260831094535 | 26 | 271 | 6.4 | 14.5 | 0.00 | 0.00 | 0.00 | 46 | 1014.6 |
| 20260831094033 | 26 | 273 | 8.0 | 16.1 | 0.00 | 0.00 | 0.00 | 46 | 1014.7 |
| 20260831093532 | 26 | 284 | 6.4 | 12.9 | 0.00 | 0.00 | 0.00 | 47 | 1014.7 |
| 20260831093029 | 26 | 293 | 4.8 | 16.1 | 0.00 | 0.00 | 0.00 | 46 | 1014.7 |
| 20260831092527 | 26 | 230 | 6.4 | 17.7 | 0.00 | 0.00 | 0.00 | 47 | 1014.6 |
| 20260831092025 | 26 | 261 | 4.8 | 11.3 | 0.00 | 0.00 | 0.00 | 49 | 1014.6 |
| 20260831091523 | 26 | 242 | 6.4 | 14.5 | 0.00 | 0.00 | 0.00 | 49 | 1014.7 |
| 20260831091022 | 26 | 231 | 6.4 | 16.1 | 0.00 | 0.00 | 0.00 | 51 | 1014.7 |
| 20260831090519 | 26 | 274 | 6.4 | 17.7 | 0.00 | 0.00 | 0.00 | 52 | 1014.7 |
| 20260831090018 | 26 | 226 | 6.4 | 17.7 | 0.00 | 0.00 | 0.00 | 52 | 1014.7 |
| 20260831085516 | 25 | 228 | 3.2 | 9.7 | 0.00 | 0.00 | 0.00 | 56 | 1014.8 |
| 20260831085034 | 25 | 210 | 1.6 | 6.4 | 0.00 | 0.00 | 0.00 | 56 | 1014.8 |
| 20260831084532 | 25 | 202 | 4.8 | 12.9 | 0.00 | 0.00 | 0.00 | 57 | 1014.9 |
| 20260831084030 | 25 | 151 | 3.2 | 11.3 | 0.00 | 0.00 | 0.00 | 58 | 1014.8 |
| 20260831083528 | 25 | 165 | 1.6 | 6.4 | 0.00 | 0.00 | 0.00 | 60 | 1014.9 |
| 20260831083026 | 24 | 217 | 3.2 | 6.4 | 0.00 | 0.00 | 0.00 | 60 | 1014.9 |
| 20260831082525 | 24 | 156 | 3.2 | 6.4 | 0.00 | 0.00 | 0.00 | 62 | 1015.0 |
| 20260831082023 | 23 | 187 | 1.6 | 11.3 | 0.00 | 0.00 | 0.00 | 62 | 1015.0 |
| 20260831081521 | 23 | 233 | 1.6 | 6.4 | 0.00 | 0.00 | 0.00 | 64 | 1014.9 |
| 20260831081019 | 23 | 183 | 0.0 | 4.8 | 0.00 | 0.00 | 0.00 | 64 | 1014.9 |
| 20260831080518 | 23 | 180 | 3.2 | 4.8 | 0.00 | 0.00 | 0.00 | 66 | 1015.0 |
| 20260831080048 | 22 | 169 | 3.2 | 4.8 | 0.00 | 0.00 | 0.00 | 66 | 1015.0 |
| 20260831080016 | 22 | 169 | 3.2 | 4.8 | 0.00 | 0.00 | 0.00 | 66 | 1015.0 |
| 20260831075534 | 22 | 128 | 1.6 | 3.2 | 0.00 | 0.00 | 0.00 | 67 | 1015.0 |
| 20260831075032 | 22 | 120 | 0.0 | 4.8 | 0.00 | 0.00 | 0.00 | 68 | 1015.0 |
| 20260831074530 | 22 | 152 | 0.0 | 3.2 | 0.00 | 0.00 | 0.00 | 69 | 1015.1 |
| 20260831074028 | 21 | 165 | 1.6 | 6.4 | 0.00 | 0.00 | 0.00 | 69 | 1015.1 |
| 20260831073526 | 21 | 187 | 0.0 | 3.2 | 0.00 | 0.00 | 0.00 | 70 | 1015.1 |
| 20260831073105 | 21 | 231 | 0.0 | 1.6 | 0.00 | 0.00 | 0.00 | 70 | 1015.2 |
| 20260831073024 | 21 | 231 | 0.0 | 1.6 | 0.00 | 0.00 | 0.00 | 70 | 1015.2 |
| 20260831072523 | 21 | 205 | 0.0 | 1.6 | 0.00 | 0.00 | 0.00 | 70 | 1015.3 |
| 20260831072021 | 20 | 0.0 | 0.0 | 0.00 | 0.00 | 0.00 | 70 | 1015.3 | |
| 20260831071519 | 20 | 103 | 0.0 | 3.2 | 0.00 | 0.00 | 0.00 | 71 | 1015.2 |
| 20260831071048 | 20 | 115 | 1.6 | 3.2 | 0.00 | 0.00 | 0.00 | 72 | 1015.2 |
| 20260831071017 | 20 | 115 | 1.6 | 3.2 | 0.00 | 0.00 | 0.00 | 72 | 1015.2 |
| 20260831070535 | 20 | 0.0 | 0.0 | 0.00 | 0.00 | 0.00 | 73 | 1015.2 | |
| 20260831070033 | 19 | 0.0 | 0.0 | 0.00 | 0.00 | 0.00 | 73 | 1015.2 | |
| 20260831065531 | 19 | 0.0 | 0.0 | 0.00 | 0.00 | 0.00 | 74 | 1015.2 | |
| 20260831065030 | 19 | 0.0 | 0.0 | 0.00 | 0.00 | 0.00 | 74 | 1015.2 | |
| 20260831064528 | 18 | 160 | 0.0 | 1.6 | 0.00 | 0.00 | 0.00 | 74 | 1015.2 |
| 20260831064026 | 18 | 117 | 0.0 | 3.2 | 0.00 | 0.00 | 0.00 | 74 | 1015.2 |
| 20260831063524 | 18 | 92 | 1.6 | 4.8 | 0.00 | 0.00 | 0.00 | 75 | 1015.2 |
| 20260831063023 | 18 | 102 | 1.6 | 4.8 | 0.00 | 0.00 | 0.00 | 75 | 1015.2 |
| 20260831062521 | 18 | 0.0 | 0.0 | 0.00 | 0.00 | 0.00 | 76 | 1015.2 | |
| 20260831062018 | 17 | 0.0 | 0.0 | 0.00 | 0.00 | 0.00 | 76 | 1015.2 | |
| 20260831061517 | 17 | 0.0 | 0.0 | 0.00 | 0.00 | 0.00 | 77 | 1015.3 | |
| 20260831061035 | 17 | 0.0 | 0.0 | 0.00 | 0.00 | 0.00 | 77 | 1015.3 | |
| 20260831060533 | 17 | 0.0 | 0.0 | 0.00 | 0.00 | 0.00 | 77 | 1015.3 | |
| 20260831060030 | 17 | 0.0 | 0.0 | 0.00 | 0.00 | 0.00 | 77 | 1015.3 | |
| 20260831055528 | 16 | 0.0 | 0.0 | 0.00 | 0.00 | 0.00 | 77 | 1015.4 | |
| 20260831055026 | 16 | 0.0 | 0.0 | 0.00 | 0.00 | 0.00 | 77 | 1015.3 | |
| 20260831054525 | 16 | 0.0 | 0.0 | 0.00 | 0.00 | 0.00 | 76 | 1015.4 | |
| 20260831054022 | 16 | 0.0 | 0.0 | 0.00 | 0.00 | 0.00 | 76 | 1015.3 | |
| 20260831053521 | 16 | 0.0 | 0.0 | 0.00 | 0.00 | 0.00 | 76 | 1015.4 | |
| 20260831053019 | 16 | 0.0 | 0.0 | 0.00 | 0.00 | 0.00 | 76 | 1015.3 | |
| 20260831052517 | 16 | 0.0 | 0.0 | 0.00 | 0.00 | 0.00 | 76 | 1015.3 | |
| 20260831052403 | 16 | 0.0 | 0.0 | 0.00 | 0.00 | 0.00 | |||
| 20260831052035 | 16 | 0.0 | 0.0 | 0.00 | 0.00 | 0.00 | 76 | 1015.3 | |
| 20260831051533 | 16 | 0.0 | 0.0 | 0.00 | 0.00 | 0.00 | 76 | 1015.3 | |
| 20260831051031 | 16 | 0.0 | 0.0 | 0.00 | 0.00 | 0.00 | 76 | 1015.4 | |
| 20260831050529 | 16 | 0.0 | 0.0 | 0.00 | 0.00 | 0.00 | 76 | 1015.2 | |
| 20260831050028 | 16 | 0.0 | 0.0 | 0.00 | 0.00 | 0.00 | 76 | 1015.4 | |
| 20260831045525 | 15 | 0.0 | 0.0 | 0.00 | 0.00 | 0.00 | 76 | 1015.4 | |
| 20260831045023 | 15 | 0.0 | 0.0 | 0.00 | 0.00 | 0.00 | 76 | 1015.4 | |
| 20260831044521 | 15 | 0.0 | 0.0 | 0.00 | 0.00 | 0.00 | 76 | 1015.4 | |
| 20260831044019 | 15 | 0.0 | 0.0 | 0.00 | 0.00 | 0.00 | 76 | 1015.4 | |
| 20260831043518 | 15 | 0.0 | 0.0 | 0.00 | 0.00 | 0.00 | 76 | 1015.5 | |
| 20260831043035 | 15 | 0.0 | 0.0 | 0.00 | 0.00 | 0.00 | 76 | 1015.4 | |
| 20260831042534 | 15 | 0.0 | 0.0 | 0.00 | 0.00 | 0.00 | 76 | 1015.4 | |
| 20260831042032 | 15 | 0.0 | 0.0 | 0.00 | 0.00 | 0.00 | 76 | 1015.3 | |
| 20260831041530 | 16 | 0.0 | 0.0 | 0.00 | 0.00 | 0.00 | 76 | 1015.3 | |
| 20260831041028 | 16 | 0.0 | 0.0 | 0.00 | 0.00 | 0.00 | 76 | 1015.3 | |
| 20260831040526 | 16 | 0.0 | 0.0 | 0.00 | 0.00 | 0.00 | 76 | 1015.2 | |
| 20260831040024 | 16 | 0.0 | 0.0 | 0.00 | 0.00 | 0.00 | 76 | 1015.2 | |
| 20260831035522 | 16 | 0.0 | 0.0 | 0.00 | 0.00 | 0.00 | 75 | 1015.1 | |
| 20260831035020 | 16 | 0.0 | 0.0 | 0.00 | 0.00 | 0.00 | 76 | 1015.1 | |
| 20260831034519 | 16 | 0.0 | 0.0 | 0.00 | 0.00 | 0.00 | 76 | 1015.2 | |
| 20260831034017 | 16 | 0.0 | 0.0 | 0.00 | 0.00 | 0.00 | 75 | 1015.2 | |
| 20260831033534 | 16 | 0.0 | 0.0 | 0.00 | 0.00 | 0.00 | 75 | 1015.2 | |
| 20260831033033 | 16 | 0.0 | 0.0 | 0.00 | 0.00 | 0.00 | 75 | 1015.2 | |
| 20260831032531 | 16 | 0.0 | 0.0 | 0.00 | 0.00 | 0.00 | 75 | 1015.1 | |
| 20260831032131 | -17 | 0.0 | 0.0 | 0.00 | 0.00 | 0.00 | |||
| 20260831032029 | 16 | 0.0 | 0.0 | 0.00 | 0.00 | 0.00 | 75 | 1015.1 | |
| 20260831031527 | 16 | 0.0 | 0.0 | 0.00 | 0.00 | 0.00 | 75 | 1015.2 | |
| 20260831031025 | 16 | 0.0 | 0.0 | 0.00 | 0.00 | 0.00 | 74 | 1015.3 | |
| 20260831030523 | 16 | 0.0 | 0.0 | 0.00 | 0.00 | 0.00 | 74 | 1015.3 | |
| 20260831030022 | 16 | 0.0 | 0.0 | 0.00 | 0.00 | 0.00 | 74 | 1015.3 | |
| 20260831025519 | 16 | 0.0 | 0.0 | 0.00 | 0.00 | 0.00 | 74 | 1015.3 | |
| 20260831025050 | 16 | 0.0 | 0.0 | 0.00 | 0.00 | 0.00 | 74 | 1015.2 | |
| 20260831025017 | 16 | 0.0 | 0.0 | 0.00 | 0.00 | 0.00 | 74 | 1015.2 | |
| 20260831024516 | 16 | 0.0 | 0.0 | 0.00 | 0.00 | 0.00 | 74 | 1015.2 | |
| 20260831024034 | 17 | 0.0 | 0.0 | 0.00 | 0.00 | 0.00 | 74 | 1015.3 | |
| 20260831023532 | 17 | 0.0 | 0.0 | 0.00 | 0.00 | 0.00 | 74 | 1015.4 | |
| 20260831023030 | 17 | 0.0 | 0.0 | 0.00 | 0.00 | 0.00 | 73 | 1015.4 | |
| 20260831022528 | 17 | 0.0 | 0.0 | 0.00 | 0.00 | 0.00 | 73 | 1015.4 | |
| 20260831022026 | 17 | 0.0 | 0.0 | 0.00 | 0.00 | 0.00 | 73 | 1015.4 | |
| 20260831021524 | 17 | 0.0 | 0.0 | 0.00 | 0.00 | 0.00 | 73 | 1015.4 | |
| 20260831021022 | 17 | 0.0 | 0.0 | 0.00 | 0.00 | 0.00 | 73 | 1015.4 | |
| 20260831020520 | 17 | 0.0 | 0.0 | 0.00 | 0.00 | 0.00 | 73 | 1015.4 | |
| 20260831020018 | 17 | 0.0 | 0.0 | 0.00 | 0.00 | 0.00 | 73 | 1015.4 | |
| 20260831015516 | 17 | 0.0 | 0.0 | 0.00 | 0.00 | 0.00 | 73 | 1015.4 | |
| 20260831015035 | 17 | 0.0 | 0.0 | 0.00 | 0.00 | 0.00 | 73 | 1015.5 | |
| 20260831014533 | 17 | 0.0 | 0.0 | 0.00 | 0.00 | 0.00 | 73 | 1015.4 | |
| 20260831014031 | 17 | 0.0 | 0.0 | 0.00 | 0.00 | 0.00 | 73 | 1015.4 | |
| 20260831013529 | 17 | 0.0 | 0.0 | 0.00 | 0.00 | 0.00 | 73 | 1015.4 | |
| 20260831013027 | 17 | 0.0 | 0.0 | 0.00 | 0.00 | 0.00 | 73 | 1015.4 | |
| 20260831012525 | 17 | 0.0 | 0.0 | 0.00 | 0.00 | 0.00 | 73 | 1015.5 | |
| 20260831012024 | 17 | 0.0 | 0.0 | 0.00 | 0.00 | 0.00 | 73 | 1015.4 | |
| 20260831011521 | 17 | 0.0 | 0.0 | 0.00 | 0.00 | 0.00 | 73 | 1015.4 | |
| 20260831011019 | 17 | 0.0 | 0.0 | 0.00 | 0.00 | 0.00 | 73 | 1015.5 | |
| 20260831010518 | 17 | 0.0 | 0.0 | 0.00 | 0.00 | 0.00 | 73 | 1015.5 | |
| 20260831010048 | 17 | 0.0 | 0.0 | 0.00 | 0.00 | 0.00 | 72 | 1015.6 | |
| 20260831010016 | 17 | 0.0 | 0.0 | 0.00 | 0.00 | 0.00 | 72 | 1015.6 | |
| 20260831005534 | 17 | 0.0 | 0.0 | 0.00 | 0.00 | 0.00 | 72 | 1015.6 | |
| 20260831005033 | 17 | 0.0 | 0.0 | 0.00 | 0.00 | 0.00 | 72 | 1015.7 | |
| 20260831004530 | 17 | 0.0 | 0.0 | 0.00 | 0.00 | 0.00 | 72 | 1015.7 | |
| 20260831004028 | 17 | 0.0 | 0.0 | 0.00 | 0.00 | 0.00 | 72 | 1015.7 | |
| 20260831003526 | 17 | 0.0 | 0.0 | 0.00 | 0.00 | 0.00 | 72 | 1015.8 | |
| 20260831003024 | 17 | 0.0 | 0.0 | 0.00 | 0.00 | 0.00 | 72 | 1015.7 | |
| 20260831002523 | 17 | 0.0 | 0.0 | 0.00 | 0.00 | 0.00 | 72 | 1015.8 | |
| 20260831002021 | 17 | 0.0 | 0.0 | 0.00 | 0.00 | 0.00 | 72 | 1015.8 | |
| 20260831001519 | 17 | 0.0 | 0.0 | 0.00 | 0.00 | 0.00 | 71 | 1015.9 | |
| 20260831001017 | 17 | 0.0 | 0.0 | 0.00 | 0.00 | 0.00 | 71 | 1015.9 | |
| 20260831000535 | 17 | 0.0 | 0.0 | 0.00 | 0.00 | 0.00 | 71 | 1015.9 | |
| 20260831000033 | 17 | 0.0 | 0.0 | 0.00 | 0.00 | 0.00 | 71 | 1015.9 | |
| 20260830235532 | 17 | 0.0 | 0.0 | 0.00 | 0.00 | 0.00 | 71 | 1015.9 | |
| 20260830235030 | 17 | 0.0 | 0.0 | 0.00 | 0.00 | 0.00 | 71 | 1016.0 | |
| 20260830234528 | 17 | 0.0 | 0.0 | 0.00 | 0.00 | 0.00 | 71 | 1015.9 | |
| 20260830234026 | 17 | 0.0 | 0.0 | 0.00 | 0.00 | 0.00 | 71 | 1015.9 | |
| 20260830233524 | 17 | 0.0 | 0.0 | 0.00 | 0.00 | 0.00 | 71 | 1016.0 | |
| 20260830233022 | 17 | 0.0 | 0.0 | 0.00 | 0.00 | 0.00 | 71 | 1016.0 | |
| 20260830232521 | 17 | 0.0 | 0.0 | 0.00 | 0.00 | 0.00 | 70 | 1015.9 | |
| 20260830232018 | 17 | 0.0 | 0.0 | 0.00 | 0.00 | 0.00 | 70 | 1015.9 | |
| 20260830231516 | 17 | 0.0 | 0.0 | 0.00 | 0.00 | 0.00 | 70 | 1015.9 | |
| 20260830231035 | 18 | 0.0 | 0.0 | 0.00 | 0.00 | 0.00 | 70 | 1015.9 | |
| 20260830230533 | 18 | 0.0 | 0.0 | 0.00 | 0.00 | 0.00 | 70 | 1015.9 | |
| 20260830230031 | 18 | 0.0 | 0.0 | 0.00 | 0.00 | 0.00 | 70 | 1016.0 | |
| 20260830225529 | 18 | 0.0 | 0.0 | 0.00 | 0.00 | 0.00 | 69 | 1016.0 | |
| 20260830225027 | 18 | 0.0 | 0.0 | 0.00 | 0.00 | 0.00 | 69 | 1015.9 | |
| 20260830224525 | 18 | 0.0 | 0.0 | 0.00 | 0.00 | 0.00 | 69 | 1016.0 | |
| 20260830224023 | 18 | 0.0 | 0.0 | 0.00 | 0.00 | 0.00 | 69 | 1016.0 | |
| 20260830223521 | 18 | 0.0 | 0.0 | 0.00 | 0.00 | 0.00 | 68 | 1015.9 | |
| 20260830223019 | 18 | 0.0 | 0.0 | 0.00 | 0.00 | 0.00 | 68 | 1015.9 | |
| 20260830222518 | 18 | 0.0 | 0.0 | 0.00 | 0.00 | 0.00 | 68 | 1015.9 | |
| 20260830222016 | 18 | 0.0 | 0.0 | 0.00 | 0.00 | 0.00 | 68 | 1015.8 | |
| 20260830221534 | 18 | 0.0 | 0.0 | 0.00 | 0.00 | 0.00 | 68 | 1015.9 | |
| 20260830221032 | 18 | 0.0 | 0.0 | 0.00 | 0.00 | 0.00 | 67 | 1015.9 | |
| 20260830220529 | 18 | 193 | 0.0 | 3.2 | 0.00 | 0.00 | 0.00 | 67 | 1015.9 |
| 20260830220028 | 19 | 194 | 1.6 | 4.8 | 0.00 | 0.00 | 0.00 | 67 | 1016.0 |
| 20260830215526 | 19 | 189 | 1.6 | 4.8 | 0.00 | 0.00 | 0.00 | 67 | 1015.9 |
| 20260830215056 | 19 | 186 | 3.2 | 4.8 | 0.00 | 0.00 | 0.00 | 67 | 1016.0 |
| 20260830215024 | 19 | 186 | 3.2 | 4.8 | 0.00 | 0.00 | 0.00 | 67 | 1016.0 |
| 20260830214522 | 19 | 186 | 3.2 | 4.8 | 0.00 | 0.00 | 0.00 | 67 | 1015.9 |
| 20260830214021 | 19 | 182 | 3.2 | 4.8 | 0.00 | 0.00 | 0.00 | 67 | 1015.9 |
| 20260830213518 | 19 | 0.0 | 0.0 | 0.00 | 0.00 | 0.00 | 67 | 1015.9 | |
| 20260830213047 | 19 | 0.0 | 0.0 | 0.00 | 0.00 | 0.00 | 67 | 1015.9 | |
| 20260830213016 | 19 | 0.0 | 0.0 | 0.00 | 0.00 | 0.00 | 67 | 1015.9 | |
| 20260830212535 | 19 | 185 | 0.0 | 4.8 | 0.00 | 0.00 | 0.00 | 67 | 1015.8 |
| 20260830212033 | 19 | 192 | 0.0 | 3.2 | 0.00 | 0.00 | 0.00 | 67 | 1015.9 |
| 20260830211531 | 19 | 187 | 1.6 | 3.2 | 0.00 | 0.00 | 0.00 | 67 | 1015.9 |
| 20260830211029 | 19 | 188 | 1.6 | 4.8 | 0.00 | 0.00 | 0.00 | 67 | 1015.9 |
| 20260830210527 | 19 | 192 | 3.2 | 6.4 | 0.00 | 0.00 | 0.00 | 66 | 1015.8 |
| 20260830210025 | 20 | 185 | 3.2 | 4.8 | 0.00 | 0.00 | 0.00 | 66 | 1015.8 |
| 20260830205523 | 20 | 184 | 3.2 | 4.8 | 0.00 | 0.00 | 0.00 | 66 | 1015.8 |
| 20260830205021 | 20 | 184 | 3.2 | 6.4 | 0.00 | 0.00 | 0.00 | 66 | 1015.7 |
| 20260830204519 | 20 | 190 | 3.2 | 4.8 | 0.00 | 0.00 | 0.00 | 66 | 1015.7 |
| 20260830204052 | 20 | 192 | 1.6 | 4.8 | 0.00 | 0.00 | 0.00 | 66 | 1015.8 |
| 20260830204018 | 20 | 192 | 1.6 | 4.8 | 0.00 | 0.00 | 0.00 | 66 | 1015.8 |
| 20260830203516 | 20 | 189 | 3.2 | 6.4 | 0.00 | 0.00 | 0.00 | 66 | 1015.8 |
| 20260830203034 | 20 | 192 | 0.0 | 3.2 | 0.00 | 0.00 | 0.00 | 65 | 1015.7 |
| 20260830202532 | 20 | 199 | 1.6 | 3.2 | 0.00 | 0.00 | 0.00 | 65 | 1015.7 |
| 20260830202030 | 20 | 193 | 1.6 | 4.8 | 0.00 | 0.00 | 0.00 | 65 | 1015.7 |
| 20260830201528 | 20 | 195 | 1.6 | 6.4 | 0.00 | 0.00 | 0.00 | 65 | 1015.8 |
| 20260830201026 | 20 | 183 | 0.0 | 4.8 | 0.00 | 0.00 | 0.00 | 65 | 1015.7 |
| 20260830200524 | 20 | 194 | 0.0 | 3.2 | 0.00 | 0.00 | 0.00 | 64 | 1015.8 |
| 20260830200023 | 20 | 195 | 0.0 | 1.6 | 0.00 | 0.00 | 0.00 | 64 | 1015.7 |
| 20260830195521 | 20 | 196 | 1.6 | 3.2 | 0.00 | 0.00 | 0.00 | 64 | 1015.8 |
| 20260830195019 | 20 | 196 | 0.0 | 3.2 | 0.00 | 0.00 | 0.00 | 64 | 1015.8 |
| 20260830194517 | 20 | 190 | 0.0 | 3.2 | 0.00 | 0.00 | 0.00 | 64 | 1015.8 |
| 20260830194036 | 20 | 0.0 | 0.0 | 0.00 | 0.00 | 0.00 | 63 | 1015.8 | |
| 20260830193534 | 20 | 0.0 | 0.0 | 0.00 | 0.00 | 0.00 | 63 | 1015.8 | |
| 20260830193031 | 21 | 0.0 | 0.0 | 0.00 | 0.00 | 0.00 | 63 | 1015.9 | |
| 20260830192530 | 21 | 0.0 | 0.0 | 0.00 | 0.00 | 0.00 | 63 | 1015.8 | |
| 20260830192029 | 21 | 0.0 | 0.0 | 0.00 | 0.00 | 0.00 | 63 | 1015.7 | |
| 20260830191526 | 21 | 0.0 | 0.0 | 0.00 | 0.00 | 0.00 | 63 | 1015.7 | |
| 20260830191024 | 21 | 0.0 | 0.0 | 0.00 | 0.00 | 0.00 | 62 | 1015.7 | |
| 20260830190522 | 21 | 0.0 | 0.0 | 0.00 | 0.00 | 0.00 | 62 | 1015.8 | |
| 20260830190020 | 21 | 0.0 | 0.0 | 0.00 | 0.00 | 0.00 | 62 | 1015.7 | |
| 20260830185518 | 21 | 183 | 1.6 | 3.2 | 0.00 | 0.00 | 0.00 | 62 | 1015.7 |
| 20260830185016 | 21 | 185 | 1.6 | 3.2 | 0.00 | 0.00 | 0.00 | 62 | 1015.7 |
| 20260830184534 | 21 | 193 | 1.6 | 4.8 | 0.00 | 0.00 | 0.00 | 61 | 1015.7 |
| 20260830184032 | 21 | 190 | 1.6 | 4.8 | 0.00 | 0.00 | 0.00 | 61 | 1015.7 |
| 20260830183531 | 22 | 187 | 3.2 | 6.4 | 0.00 | 0.00 | 0.00 | 61 | 1015.6 |
| 20260830183028 | 22 | 178 | 1.6 | 6.4 | 0.00 | 0.00 | 0.00 | 60 | 1015.6 |
| 20260830182527 | 22 | 0.0 | 0.0 | 0.00 | 0.00 | 0.00 | 60 | 1015.6 | |
| 20260830182025 | 22 | 0.0 | 0.0 | 0.00 | 0.00 | 0.00 | 60 | 1015.6 | |
| 20260830181523 | 22 | 0.0 | 0.0 | 0.00 | 0.00 | 0.00 | 59 | 1015.6 | |
| 20260830181021 | 22 | 0.0 | 0.0 | 0.00 | 0.00 | 0.00 | 58 | 1015.6 | |
| 20260830180519 | 22 | 0.0 | 0.0 | 0.00 | 0.00 | 0.00 | 58 | 1015.5 | |
| 20260830180017 | 22 | 0.0 | 0.0 | 0.00 | 0.00 | 0.00 | 58 | 1015.4 | |
| 20260830175535 | 23 | 0.0 | 0.0 | 0.00 | 0.00 | 0.00 | 57 | 1015.4 | |
| 20260830175034 | 23 | 0.0 | 0.0 | 0.00 | 0.00 | 0.00 | 57 | 1015.4 | |
| 20260830174532 | 23 | 0.0 | 0.0 | 0.00 | 0.00 | 0.00 | 57 | 1015.4 | |
| 20260830174030 | 23 | 0.0 | 0.0 | 0.00 | 0.00 | 0.00 | 57 | 1015.4 | |
| 20260830173528 | 23 | 183 | 0.0 | 1.6 | 0.00 | 0.00 | 0.00 | 56 | 1015.3 |
| 20260830173026 | 23 | 190 | 0.0 | 1.6 | 0.00 | 0.00 | 0.00 | 56 | 1015.2 |
| 20260830172524 | 23 | 184 | 3.2 | 6.4 | 0.00 | 0.00 | 0.00 | 55 | 1015.3 |
| 20260830172022 | 23 | 186 | 1.6 | 6.4 | 0.00 | 0.00 | 0.00 | 55 | 1015.2 |
| 20260830171520 | 24 | 197 | 1.6 | 4.8 | 0.00 | 0.00 | 0.00 | 54 | 1015.2 |
| 20260830171018 | 24 | 186 | 3.2 | 6.4 | 0.00 | 0.00 | 0.00 | 54 | 1015.2 |
| 20260830170516 | 24 | 192 | 3.2 | 6.4 | 0.00 | 0.00 | 0.00 | 53 | 1015.2 |
| 20260830170034 | 24 | 185 | 3.2 | 9.7 | 0.00 | 0.00 | 0.00 | 52 | 1015.2 |
| 20260830165532 | 24 | 182 | 3.2 | 11.3 | 0.00 | 0.00 | 0.00 | 52 | 1015.1 |
| 20260830165031 | 25 | 189 | 3.2 | 6.4 | 0.00 | 0.00 | 0.00 | 51 | 1015.2 |
| 20260830164529 | 25 | 198 | 3.2 | 6.4 | 0.00 | 0.00 | 0.00 | 51 | 1015.2 |